This is the latest recevied weather packets stored in our database for station/object NO3U. If no packets are shown the sender has not sent any weather packets the latest 10 day(s).
| Time | Temp. | Humidity | Pressure | Rain* | Wind** | Luminosity | Snow |
|---|---|---|---|---|---|---|---|
| 1777898630 | 14.44° C | 55% | 1011.3 hPa | 0 mm | - | 247 W/m² | - |
| 1777898327 | 14.44° C | 55% | 1011.3 hPa | 0 mm | - | 223 W/m² | - |
| 1777898025 | 13.89° C | 56% | 1011.2 hPa | 0 mm | - | 209 W/m² | - |
| 1777897720 | 13.89° C | 58% | 1011.1 hPa | 0 mm | - | 195 W/m² | - |
| 1777897417 | 13.33° C | 58% | 1011.3 hPa | 0 mm | - | 181 W/m² | - |
| 1777897113 | 13.89° C | 60% | 1011.3 hPa | 0 mm | - | 169 W/m² | - |
| 1777896810 | 13.33° C | 58% | 1011.1 hPa | 0 mm | - | 154 W/m² | - |
| 1777896507 | 13.33° C | 58% | 1011 hPa | 0 mm | - | 141 W/m² | - |
| 1777896204 | 12.78° C | 61% | 1011.2 hPa | 0 mm | - | 130 W/m² | - |
| 1777895902 | 12.78° C | 60% | 1011 hPa | 0 mm | - | 118 W/m² | - |
| 1777895599 | 12.22° C | 60% | 1011 hPa | 0 mm | - | 108 W/m² | - |
| 1777895296 | 12.22° C | 61% | 1011.1 hPa | 0 mm | - | 98 W/m² | - |
| 1777894994 | 11.67° C | 61% | 1010.9 hPa | 0 mm | - | 89 W/m² | - |
| 1777894691 | 11.67° C | 62% | 1011 hPa | 0 mm | - | 80 W/m² | - |
| 1777894388 | 11.67° C | 62% | 1011.1 hPa | 0 mm | - | 68 W/m² | - |
| 1777894086 | 11.11° C | 63% | 1011 hPa | 0 mm | - | 66 W/m² | - |
| 1777893782 | 10.56° C | 65% | 1011.2 hPa | 0 mm | - | 42 W/m² | - |
| 1777893479 | 10.56° C | 65% | 1010.9 hPa | 0 mm | - | 35 W/m² | - |
| 1777893175 | 10° C | 67% | 1010.9 hPa | 0 mm | - | 38 W/m² | - |
| 1777892871 | 10° C | 65% | 1011.2 hPa | 0 mm | - | 26 W/m² | - |
| 1777892568 | 10° C | 68% | 1011.1 hPa | 0 mm | - | 30 W/m² | - |
| 1777892264 | 10° C | 65% | 1011.2 hPa | 0 mm | - | 21 W/m² | - |
| 1777891960 | 10.56° C | 66% | 1010.8 hPa | 0 mm | - | 19 W/m² | - |
| 1777891658 | 10° C | 67% | 1011.1 hPa | 0 mm | - | 15 W/m² | - |
| 1777891354 | 10.56° C | 67% | 1011 hPa | 0 mm | - | 10 W/m² | - |
* Rain latest hour (hover to see other rain measurements)
** Current wind speed in m/s (hover to see current wind gust speed)